Regional Weather Roundup
Issued by NWS

Home | Current Version | Previous Version | Graphics & Text | Print | Product List | Glossary On
Versions: 1 2 3 4 5 6 7 8 9 10 11 12 13 14 15 16 17 18 19 20 21 22 23 24 25 26 27 28 29 30 31 32 33 34 35 36 37 38 39 40 41 42 43 44 45 46 47 48 49 50
000
ASUS43 KOAX 240810
RWRNE

WEATHER ROUNDUP FOR NEBRASKA
NATIONAL WEATHER SERVICE OMAHA NE
300 AM CDT MON APR 24 2017

NOTES: SATELLITE DATA IS BEING USED TO AUGMENT CLOUD COVER ABOVE
       12000 FEET.
       "FAIR" INDICATES FEW OR NO CLOUDS BELOW 12,000 FEET WITH NO
       SIGNIFICANT WEATHER AND/OR OBSTRUCTIONS TO VISIBILITY.

  * THESE STATIONS DO NOT REPORT WEATHER SUCH AS RAIN...SNOW OR FOG.

NEZ001>004-019>022-054>056-240900-
NEBRASKA PANHANDLE

CITY           SKY/WX    TMP DP  RH WIND       PRES   REMARKS
SCOTTSBLUFF    CLOUDY    46  37  71 NW5       29.60R
ALLIANCE       PTCLDY    48  39  71 S8        29.57R
CHADRON        PTCLDY    48  42  80 N7        29.60S
KIMBALL        CLOUDY    48  41  79 W17       29.62R
SIDNEY         PTCLDY    44  40  85 CALM      29.55F
$$

NEZ057>060-069>072-079>082-240900-
SOUTHWEST NEBRASKA

CITY           SKY/WX    TMP DP  RH WIND       PRES   REMARKS
NORTH PLATTE   CLOUDY    53  35  50 SE12      29.60F
IMPERIAL       CLOUDY    52  35  52 SE6       29.58F
LEXINGTON      CLOUDY    53  34  48 S23       29.65F
MCCOOK         CLOUDY    53  35  50 S10       29.62F
OGALLALA       CLOUDY    51  37  58 E7        29.58F
$$

NEZ005>010-023>029-035>040-094-240900-
NORTH CENTRAL NEBRASKA

CITY           SKY/WX    TMP DP  RH WIND       PRES   REMARKS
VALENTINE      CLOUDY    58  30  34 S22       29.54F
AINSWORTH      CLOUDY    53  37  53 S15       29.61F
BROKEN BOW     CLOUDY    53  34  48 S17G25    29.65F
O`NEILL        CLOUDY    55  32  41 S15G24    29.66F
ORD            CLOUDY    53  33  46 SE13G21   29.67F
THEDFORD       CLOUDY    54  33  45 S15G23    29.60F
$$

NEZ041-046>049-061>064-073>077-083>087-240900-
SOUTH CENTRAL NEBRASKA

CITY           SKY/WX    TMP DP  RH WIND       PRES   REMARKS
GRAND ISLAND   CLOUDY    53  35  50 S21       29.73F
AURORA         CLOUDY    52  33  49 S15       29.76F
HASTINGS       CLOUDY    53  34  48 S16G23    29.76F
HEBRON         CLOUDY    52  36  53 S10G17    29.81F
HOLDREGE       CLOUDY    52  34  50 S24G31    29.68F
KEARNEY *      CLOUDY    52  32  46 S21G26    29.71F
YORK           CLOUDY    54  36  50 S17G23    29.79F
$$

NEZ011>018-030>034-042>045-240900-
NORTHEAST NEBRASKA

CITY           SKY/WX    TMP DP  RH WIND       PRES   REMARKS
NORFOLK        PTCLDY    54  32  43 S21G31    29.74F
ALBION         MOCLDY    54  33  46 S15G21    29.74F
BLAIR          CLOUDY    54  36  50 S14G21    29.82F
FREMONT        CLOUDY    53  35  50 S16       29.82F
TEKAMAH        CLOUDY    48  39  71 S10       29.82F
WAYNE          CLOUDY    51  36  55 S14       29.76F
$$

NEZ050>053-065>068-078-088>093-240900-
SOUTHEAST NEBRASKA

CITY           SKY/WX    TMP DP  RH WIND       PRES   REMARKS
LINCOLN        CLOUDY    49  36  61 S5        29.84F
OMAHA EPPLEY   CLOUDY    54  36  50 S15       29.84F
BEATRICE       CLOUDY    51  38  62 S9        29.85S
FALLS CITY     PTCLDY    50  38  63 SE8       29.88F
NEBRASKA CITY  PTCLDY    51  31  47 S13       29.87F
PLATTSMOUTH    CLOUDY    53  32  45 SE14      29.85F
$$

NEZ044-045-051>053-067-240900-
OMAHA AREA

CITY           SKY/WX    TMP DP  RH WIND       PRES   REMARKS
OMAHA EPPLEY   CLOUDY    54  36  50 S15       29.84F
BLAIR          CLOUDY    54  36  50 S14G21    29.82F
FREMONT        CLOUDY    53  35  50 S16       29.82F
MILLARD        MOCLDY    53  38  55 SE7       29.84F
OFFUTT AFB     CLOUDY    49  36  61 SE5       29.84F
PLATTSMOUTH    CLOUDY    53  32  45 SE14      29.85F
WAHOO          FAIR      46  35  65 S7        29.83S
$$




USA.gov is the U.S. government's official web portal to all federal, state and local government web resources and services.